TimePDT,TemperatureF,Dew PointF,Humidity,Sea Level PressureIn,VisibilityMPH,Wind Direction,Wind SpeedMPH,Gust SpeedMPH,PrecipitationIn,Events,Conditions,WindDirDegrees,DateUTC
12:52 AM,87.1,66.0,49,29.78,10.0,South,15.0,-,N/A,,Clear,180,2013-07-11 07:52:00
1:52 AM,87.1,64.9,48,29.79,10.0,South,16.1,-,N/A,,Clear,180,2013-07-11 08:52:00
2:52 AM,84.9,66.0,53,29.79,10.0,SSW,9.2,-,N/A,,Clear,200,2013-07-11 09:52:00
3:52 AM,84.9,66.0,53,29.79,10.0,South,6.9,-,N/A,,Clear,180,2013-07-11 10:52:00
4:52 AM,82.9,66.0,56,29.80,10.0,South,11.5,-,N/A,,Scattered Clouds,180,2013-07-11 11:52:00
5:52 AM,84.0,64.9,53,29.85,10.0,South,13.8,-,N/A,,Mostly Cloudy,170,2013-07-11 12:52:00
6:41 AM,78.8,69.8,74,29.90,10.0,SSE,12.7,-,0.04,Rain-Thunderstorm,Light Rain,160,2013-07-11 13:41:00
6:52 AM,78.1,70.0,76,29.89,10.0,SE,10.4,-,0.05,Rain-Thunderstorm,Light Rain,140,2013-07-11 13:52:00
7:14 AM,77.0,71.6,83,29.93,5.0,ESE,9.2,-,0.03,Rain,Light Rain,110,2013-07-11 14:14:00
7:52 AM,75.0,72.0,90,29.92,3.0,ENE,10.4,-,0.14,Rain,Rain,60,2013-07-11 14:52:00
8:52 AM,75.9,73.0,91,29.90,10.0,NNW,11.5,-,0.02,,Clear,330,2013-07-11 15:52:00
9:52 AM,81.0,72.0,74,29.90,10.0,NNW,6.9,-,N/A,,Partly Cloudy,340,2013-07-11 16:52:00
10:52 AM,84.0,72.0,67,29.89,10.0,ENE,4.6,-,N/A,,Partly Cloudy,60,2013-07-11 17:52:00
11:52 AM,84.9,75.0,72,29.89,10.0,East,10.4,-,N/A,,Clear,100,2013-07-11 18:52:00
12:52 PM,86.0,73.0,65,29.88,10.0,East,9.2,-,N/A,,Partly Cloudy,80,2013-07-11 19:52:00
1:52 PM,88.0,72.0,59,29.86,10.0,ESE,6.9,-,0.00,,Clear,110,2013-07-11 20:52:00
2:52 PM,91.0,70.0,50,29.83,10.0,East,5.8,-,N/A,,Clear,80,2013-07-11 21:52:00
3:52 PM,91.9,70.0,48,29.80,10.0,East,5.8,-,N/A,,Clear,100,2013-07-11 22:52:00
4:52 PM,91.9,68.0,45,29.78,10.0,East,3.5,-,N/A,,Clear,80,2013-07-11 23:52:00
5:52 PM,93.0,68.0,44,29.75,10.0,NNE,3.5,-,N/A,,Clear,30,2013-07-12 00:52:00
6:52 PM,89.1,69.1,52,29.77,10.0,WSW,17.3,26.5,N/A,,Overcast,250,2013-07-12 01:52:00
7:52 PM,84.0,71.1,65,29.78,10.0,West,21.9,26.5,N/A,,Scattered Clouds,270,2013-07-12 02:52:00
8:52 PM,87.1,71.1,59,29.78,10.0,North,3.5,-,N/A,,Clear,360,2013-07-12 03:52:00
9:52 PM,82.9,73.9,74,29.79,10.0,West,6.9,-,N/A,,Clear,260,2013-07-12 04:52:00
10:52 PM,82.0,72.0,71,29.79,10.0,WSW,8.1,-,N/A,,Clear,240,2013-07-12 05:52:00
11:52 PM,82.0,71.1,69,29.79,10.0,SW,3.5,-,N/A,,Clear,230,2013-07-12 06:52:00